This is the latest recevied weather packets stored in our database for station/object NW5W-12. If no packets are shown the sender has not sent any weather packets the latest 10 day(s).
| Time | Temp. | Humidity | Pressure | Rain* | Wind** | Luminosity | Snow |
|---|---|---|---|---|---|---|---|
| 1788068040 | 13.33° C | 82% | 1019.3 hPa | 9.14 mm | - | - | - |
| 1788067740 | 13.33° C | 84% | 1019.3 hPa | 9.14 mm | - | - | - |
| 1788067440 | 13.33° C | 87% | 1019.5 hPa | 9.14 mm | - | - | - |
| 1788067140 | 13.33° C | 85% | 1020.2 hPa | 9.14 mm | - | - | - |
| 1788066840 | 13.33° C | 83% | 1020.3 hPa | 9.14 mm | - | - | - |
| 1788066540 | 13.89° C | 81% | 1020.7 hPa | 9.4 mm | - | - | - |
| 1788066240 | 13.89° C | 82% | 1021.3 hPa | 8.89 mm | - | - | - |
| 1788065940 | 14.44° C | 78% | 1021.5 hPa | 8.89 mm | - | - | - |
| 1788065654 | 14.44° C | 80% | 1021.7 hPa | 8.89 mm | - | - | - |
| 1788065339 | 14.44° C | 85% | 1021.8 hPa | 9.14 mm | - | - | - |
| 1788065040 | 14.44° C | 83% | 1021.5 hPa | 8.64 mm | - | - | - |
| 1788064740 | 14.44° C | 82% | 1021.4 hPa | 8.64 mm | - | - | - |
| 1788064439 | 14.44° C | 79% | 1021.1 hPa | 8.64 mm | - | - | - |
| 1788064140 | 14.44° C | 94% | 1021.3 hPa | 8.64 mm | - | - | - |
| 1788063840 | 14.44° C | 94% | 1020.7 hPa | 8.64 mm | - | - | - |
| 1788063540 | 13.89° C | 94% | 1020.5 hPa | 8.64 mm | - | - | - |
| 1788063239 | 13.89° C | 94% | 1020.4 hPa | 8.64 mm | - | - | - |
| 1788062940 | 13.89° C | 94% | 1020.5 hPa | 8.64 mm | - | - | - |
| 1788062640 | 13.89° C | 92% | 1020.4 hPa | 8.64 mm | - | - | - |
| 1788062340 | 13.89° C | 90% | 1020.1 hPa | 8.64 mm | - | - | - |
| 1788062040 | 13.89° C | 90% | 1020.3 hPa | 8.89 mm | - | - | - |
| 1788061740 | 14.44° C | 91% | 1020.3 hPa | 8.38 mm | - | - | - |
| 1788061439 | 14.44° C | 91% | 1020.1 hPa | 8.38 mm | - | - | - |
| 1788061140 | 14.44° C | 89% | 1019.7 hPa | 8.38 mm | - | - | - |
| 1788060839 | 14.44° C | 87% | 1019.7 hPa | 8.64 mm | - | - | - |
* Rain since midnight (hover to see other rain measurements)
** Current wind speed in m/s (hover to see current wind gust speed)